Regional Weather Roundup
Issued by NWS

Home | Current Version | Previous Version | Text Only | Print | Product List | Glossary On
Versions: 1 2 3 4 5 6 7 8 9 10 11 12 13 14 15 16 17 18 19 20 21 22 23 24 25 26 27 28 29 30 31 32 33 34 35 36 37 38 39 40 41 42 43 44 45 46 47 48 49 50
732
ASUS43 KMPX 282110
RWRMN
WEATHER ROUNDUP FOR MINNESOTA
NATIONAL WEATHER SERVICE TWIN CITIES/CHANHASSEN MN
400 PM CDT THU APR 28 2016


NOTE: "FAIR" INDICATES FEW OR NO CLOUDS BELOW 12,000 FEET WITH NO
SIGNIFICANT WEATHER AND/OR OBSTRUCTIONS TO VISIBILITY. N/A MEANS
CURRENT SKY AND/OR WEATHER CONDITIONS ARE NOT AVAILABLE.

MNZ060>063-068>070-282200-
   Twin Cities Metro

CITY           SKY/WX    TMP DP  RH WIND       PRES   REMARKS
TWIN CITIES    LGT RAIN  41  35  79 NE20      30.04R
ST PAUL        LGT RAIN  41  35  79 E15       30.05S
CRYSTAL        LGT RAIN  42  35  76 E8        30.04R
BLAINE         LGT RAIN  45  37  76 E9        30.04R
EDEN PRAIRIE   LGT RAIN  42  35  76 NE10      30.02R
SOUTH ST PAUL  LGT RAIN  41  37  88 NE14      30.04R
LAKE ELMO      DRIZZLE   41  36  81 E9        30.05S
$$
MNZ001>005-007-008-013>017-022>024-027-028-282200-
   Northwest Minnesota

CITY           SKY/WX    TMP DP  RH WIND       PRES   REMARKS
BEMIDJI        MOSUNNY   56  25  30 NE13      30.06F
HALLOCK        MOSUNNY   59  16  18 E13G18    30.13F
ROSEAU         MOSUNNY   54  28  37 E15       30.15S
WARROAD        SUNNY     50  23  34 NE9       30.16F
THIEF RVR FALL CLOUDY    54  21  28 NE14      30.12S
CROOKSTON      MOSUNNY   55  25  30 E12G20    30.11S
FOSSTON        SUNNY     54  25  32 NE13G20   30.09S
DETROIT LAKES  PTSUNNY   54  21  28 E9        30.06S
MOORHEAD       CLOUDY    57  19  23 E8        30.07R
PARK RAPIDS    PTSUNNY   56  20  24 E9G22     30.05S
MAHNOMEN       FAIR      56  26  31 E13       30.06S
$$
MNZ006-009>011-018-025>026-282200-
   North Central Minnesota

CITY           SKY/WX    TMP DP  RH WIND       PRES   REMARKS
BAUDETTE       MOSUNNY   55  23  28 NE8G18    30.12F
FLAG ISLAND    SUNNY     52  18  25 NE13G21   30.14F
INTL FALLS     MOSUNNY   54  26  34 N10G17    30.11F
WASKISH        PTSUNNY   54  28  37 NE13      30.11S
BIG FORK       SUNNY     55  25  30 N9        30.08F
LONGVILLE      MOSUNNY   57  25  28 NE8G18    30.04F
GRAND RAPIDS   SUNNY     55  25  30 E9        30.07S
CRANE LAKE     CLOUDY    52  23  32 CALM      30.12F
ORR            MOSUNNY   55  19  24 NE7       30.08S
COOK           CLOUDY    52  25  35 N9        30.09F
WALKER         CLOUDY    52  25  35 E6        30.06F
$$
MNZ012-019>021-037-282200-
   Northeast Minnesota

CITY           SKY/WX    TMP DP  RH WIND       PRES   REMARKS
DULUTH         PTSUNNY   44  23  43 E17       30.09F
ELY            MOSUNNY   52  25  35 N8G17     30.08F
HIBBING        MOSUNNY   53  23  31 CALM      30.06F
EVELETH        SUNNY     55  23  28 SE6       30.07F
DULUTH HARBOR  CLOUDY    39  34  81 NE18      30.12F
TWO HARBORS    CLOUDY    48  30  49 E13       30.09F
SILVER BAY     SUNNY     46  27  46 E14       30.10S
GRAND MARAIS     N/A     39  31  72 NE9       30.14F
G MARAIS ARPRT MOSUNNY   48  23  37 NE6       30.10F
$$
MNZ029>031-032-039>041-046>048-054>057-064-282200-
   West Central Minnesota

CITY           SKY/WX    TMP DP  RH WIND       PRES   REMARKS
FERGUS FALLS   CLOUDY    52  25  35 E6        30.04S
WHEATON        CLOUDY    52  32  46 E6        30.08S
MORRIS         LGT RAIN  43  37  81 E5        30.06S
ALEXANDRIA     CLOUDY    45  35  68 SE13      30.06R
ELBOW LAKE     CLOUDY    49  27  43 SE3       30.06R
WADENA         PTSUNNY   55  27  33 E9        30.03S
GLENWOOD       CLOUDY    43  37  81 NE13      30.05F
APPLETON       CLOUDY    37  34  87 N5        30.06S
BENSON         CLOUDY    37  36  93 NE5       30.06S
ORTONVILLE     LGT RAIN  37  34  87 N5        30.07S
MADISON        DRIZZLE   36  36 100 N8        30.06F
WILLMAR        CLOUDY    43  41  93 E14       30.05S
$$
MNZ033>034-036-042>043-049>051-058-059-282200-
   Central Minnesota

CITY           SKY/WX    TMP DP  RH WIND       PRES   REMARKS
ST CLOUD       LGT RAIN  43  33  68 N7        30.05S
SAUK CENTRE    CLOUDY    43  36  75 NE13      30.06S
PAYNESVILLE    CLOUDY    45  37  72 E12G20    30.05S
AITKIN         SUNNY     57  16  19 E12       30.03S
PINE RIVER     SUNNY     57  28  33 E8G17     30.06S
BRAINERD       CLOUDY    53  19  26 NE9       30.04R
STAPLES        PTSUNNY   55  21  26 E6G17     30.03S
LONG PRAIRIE   DRIZZLE   43  36  75 SE13      30.05S
LITTLE FALLS   CLOUDY    45  34  65 S6        30.05S
LITCHFIELD     CLOUDY    45  41  87 E15       30.04S
BUFFALO        DRIZZLE   43  36  76 NE12      30.06R
MAPLE LAKE     DRIZZLE   44  38  79 E10       30.06R
HUTCHINSON     CLOUDY    43  39  86 NE15G21   30.04S
$$
MNZ037-044-045-052-053-282200-
   East Central Minnesota

CITY           SKY/WX    TMP DP  RH WIND       PRES   REMARKS
PRINCETON      LGT RAIN  45  37  76 NE7       30.06R
MORA           CLOUDY    48  28  46 NW5       30.05S
CAMBRIDGE      LGT RAIN  46  36  66 CALM      30.03S
RUSH CITY      CLOUDY    49  30  48 W3        30.03S
MOOSE LAKE     CLOUDY    45  25  45 NE15G22   30.06R
HINCKLEY       CLOUDY    52  32  46 NE12G17   30.03S
CLOQUET        CLOUDY    46  16  29 NE16G23   30.08S
MCGREGOR       SUNNY     54  25  32 E17       30.05S
$$
MNZ071>073-080-081-089-090-097-098-282200-
   Southwest Minnesota

CITY           SKY/WX    TMP DP  RH WIND       PRES   REMARKS
MONTEVIDEO     CLOUDY    37  37 100 NE9       30.06F
GRANITE FALLS  CLOUDY    40  38  91 N7        30.06S
CANBY          CLOUDY    40  39  96 N12       30.06S
MARSHALL       CLOUDY    37  35  92 N10       30.04R
REDWOOD FALLS  CLOUDY    41  37  86 NE7       30.03R
OLIVIA         CLOUDY    41  36  81 E7        30.03R
PIPESTONE      CLOUDY    37  36  93 NE10      30.00R
WINDOM         LGT RAIN  39  37  93 N12       30.00R
WORTHINGTON    CLOUDY    39  36  89 NE12      30.00R
JACKSON        DRIZZLE   41  36  81 NE13        N/A
TRACY          CLOUDY    39  37  91 NE10      30.02R
SLAYTON        CLOUDY    38  38  99 N10       30.01R
$$
MNZ065>067-074>077-082>085-091>093-282200-
   South Central Minnesota

CITY           SKY/WX    TMP DP  RH WIND       PRES   REMARKS
MANKATO        CLOUDY    39  36  87 E8        30.01R
NEW ULM        CLOUDY    39  37  93 NE7       30.02R
ST JAMES       DRIZZLE   36  34  93 NE7       30.01S
FAIRMONT       CLOUDY    39  30  70 NE13      29.98R
GLENCOE        CLOUDY    44  41  89 NE9G21    30.02S
FARIBAULT      CLOUDY    39  37  93 NE9       30.01R
OWATONNA       LGT RAIN  39  36  87 NE9       30.00R
WASECA         CLOUDY    39  36  87 NE7       30.01S FOG
ALBERT LEA     CLOUDY    39  39 100 NE10      29.97S
$$
MNZ078>079-086>088-094>096-282200-
   Southeast Minnesota

CITY           SKY/WX    TMP DP  RH WIND       PRES   REMARKS
ROCHESTER      LGT RAIN  39  38  96 NE10      29.98R FOG
RED WING       RAIN      41  37  87 E3        30.01S
STANTON        DRIZZLE   40  37  87 NE8       30.01R
DODGE CENTER   DRIZZLE   37  36  93 E9        29.99R
WINONA         CLOUDY    41  37  87 E6        30.00S FOG
AUSTIN         CLOUDY    41  37  87 NE7       29.97R FOG
PRESTON        LGT RAIN  39  36  88 NE8       29.97R
$$
ABBREVIATIONS USED IN REMARKS
   TC - TEMPERATURES IN CELSIUS
  WCI - WIND CHILL INDEX
   HX - HEAT INDEX
  VSB - VISIBILITY
$$




USA.gov is the U.S. government's official web portal to all federal, state and local government web resources and services.